Skip Page Navigation
NASA JPL Caltech
NASA Logo - Jet Propulsion Laboratory + View the NASA Portal
+ Near-Earth Object (NEO) Program
Search JPL
JPL Home Earth Solar System Stars & Galaxies Technology
JPL Solar System Dynamics
BODIES ORBITS EPHEMERIDES TOOLS PHYSICAL DATA DISCOVERY FAQ SITE MAP
JPL Small-Body Database Browser
Search: [ help ]  
27466 Cargibaysal (2000 GJ65)
Classification: Main-belt Asteroid          SPK-ID: 2027466
Ephemeris | Orbit Diagram | Orbital Elements | Physical Parameters | Discovery Circumstances | Close-Approach Data ]

[ show orbit diagram ]
Orbital Elements at Epoch 2457600.5 (2016-Jul-31.0) TDB
Reference: JPL 15 (heliocentric ecliptic J2000)
 Element Value Uncertainty (1-sigma)   Units 
e .1375393436350094 6.4127e-08  
a 2.554781687368171 1.4127e-08 au
q 2.203398690956811 1.6523e-07 au
i 9.428802392120129 8.4327e-06 deg
node 197.5079185095627 2.5312e-05 deg
peri 241.0229066992995 4.6042e-05 deg
M 115.374412932303 3.4879e-05 deg
tp 2457122.490946743918
(2015-Apr-09.99094674)
0.00014371 JED
period 1491.520128238147
4.08
1.2371e-05
3.387e-08
d
yr
n .241364493300703 2.002e-09 deg/d
Q 2.906164683779531 1.607e-08 au
  Orbit Determination Parameters
   # obs. used (total)      1181  
   data-arc span      11193 days (30.64 yr)  
   first obs. used      1985-08-23  
   last obs. used      2016-04-15  
   planetary ephem.      DE431  
   SB-pert. ephem.      SB431-BIG16  
   condition code      0  
   fit RMS      .46523  
   data source      ORB  
   producer      Otto Matic  
   solution date      2016-Apr-25 13:49:23  

Additional Information
 Earth MOID = 1.23403 au 
 Jupiter MOID = 2.4143 au 
 T_jup = 3.406 
[ show covariance matrix ]

Ephemeris | Orbit Diagram | Orbital Elements | Physical Parameters | Discovery Circumstances | Close-Approach Data ]

Physical Parameter Table
Parameter Symbol Value Units Sigma Reference Notes
absolute magnitude H 14.2 mag n/a MPO250475  

27466 Cargibaysal           Discovered 2000 Apr. 5 by the Lincoln Laboratory Near-Earth Asteroid Research Team at Socorro.
Cargi Baysal mentored a finalist in the 2011 Broadcom MASTERS, a math and science competition for middle-school students. He teaches at the School of Science and Technology, Corpus Christi, Texas.
NOTE: some special characters may not display properly (any characters within {} are an attempt to place the proper accent above a character)
Reference: 20111210/MPCPages.arcLast Updated: 2011-12-12

[ show close-approach data ]
Alternate Designations
 2000 GJ65 = 1985 QS3 = 1998 XT81 
Ephemeris | Orbit Diagram | Orbital Elements | Physical Parameters | Discovery Circumstances | Close-Approach Data ]
ABOUT SSD CREDITS/AWARDS PRIVACY/COPYRIGHT GLOSSARY LINKS
FirstGov 2016-May-02 08:16 UT
(server date/time)  
NASA Home Page
Site Manager:   Ryan S. Park
Webmaster  Alan B. Chamberlin